Eelde, Netherlands

9:52 AM CEST on March 28, 2017 (GMT +0200)
Eelde

Weather History for EHGG - March, 2013

Change the Weather History Date:

Monday, March 18, 2013

  Actual Average Record
Temperature  
Mean Temperature 40 °F -  
Max Temperature 49 °F 50 °F 58 °F (2015)
Min Temperature 32 °F 35 °F 26 °F (2003)
Degree Days  
Heating Degree Days 24    
Moisture  
Dew Point 34 °F    
Average Humidity 85    
Maximum Humidity 100    
Minimum Humidity 40    
Precipitation  
Precipitation 0.00 in 0.07 in - ()
Sea Level Pressure  
Sea Level Pressure 29.33 in    
Wind  
Wind Speed 9 mph ()    
Max Wind Speed 15 mph    
Max Gust Speed -    
Visibility 4.5 miles    
Events Rain , Snow    
Averages and records for this station are not official NWS values.
T = Trace of Precipitation, MM = Missing Value Source: Averaged Metar Reports

Daily Weather History Graph

Daily Weather History Graph

Search for Another Location

Airport or City:

Trip Planner

Search our weather history database for the weather conditions in past years. The results will help you decide how hot, cold, wet, or windy it might be!

Date:

Astronomy

Mar. 18, 2013 Rise Set
Actual Time 6:40 AM CET 6:43 PM CET
Civil Twilight 6:06 AM CET 7:18 PM CET
Nautical Twilight 5:25 AM CET 7:58 PM CET
Astronomical Twilight 4:43 AM CET 8:41 PM CET
Moon 9:40 AM CET (3/18) 1:15 AM CET (3/18)
Length of Visible Light 13h 11m
Length of Day
12h 02m
Waxing Crescent, 38% of the Moon is Illuminated
Mar 18
Waxing Crescent
Mar 19
First Quarter
Mar 27
Full
Apr 3
Last Quarter
Apr 10
New

Hourly Weather History & Observations

Time (CET) Temp. Windchill Dew Point Humidity Pressure Visibility Wind Dir Wind Speed Gust Speed Precip Events Conditions
12:25 AM 32.0 °F 23.0 °F 32.0 °F 100% 29.36 in 1.1 mi East 11.5 mph - N/A Snow Light Snow
12:55 AM 32.0 °F 22.5 °F 32.0 °F 100% 29.36 in 1.1 mi East 12.7 mph - N/A Snow Light Snow
1:00 AM 32 °F - 31 °F 97% 29.36 in 1 mi East 13.4 mph - - Snow Light Snow
1:25 AM 32.0 °F 23.0 °F 32.0 °F 100% 29.33 in 1.1 mi East 11.5 mph - N/A Snow Light Snow
1:55 AM 32.0 °F 23.0 °F 32.0 °F 100% 29.33 in 0.5 mi East 11.5 mph - N/A Snow Snow
2:25 AM 32.0 °F 24.2 °F 32.0 °F 100% 29.33 in 1.0 mi East 9.2 mph - N/A Snow Light Snow
2:55 AM 32.0 °F 24.2 °F 32.0 °F 100% 29.30 in 1.3 mi East 9.2 mph - N/A Snow Light Snow
3:25 AM 32.0 °F 23.6 °F 32.0 °F 100% 29.30 in 1.4 mi East 10.4 mph - N/A Snow Light Snow
3:55 AM 33.8 °F 27.0 °F 32.0 °F 93% 29.30 in 1.6 mi ESE 8.1 mph - N/A Rain , Snow Light Snow Grains
4:00 AM 33 °F - 32 °F 95% 29.30 in 2 mi ESE 8.9 mph - - Rain Rain Showers
4:25 AM 33.8 °F 26.4 °F 32.0 °F 93% 29.27 in 1.9 mi ESE 9.2 mph - N/A   Overcast
4:55 AM 33.8 °F 26.4 °F 33.8 °F 100% 29.27 in 1.8 mi ESE 9.2 mph - N/A   Overcast
5:25 AM 33.8 °F 26.4 °F 33.8 °F 100% 29.27 in - ESE 9.2 mph - N/A   Overcast
5:55 AM 35.6 °F 29.2 °F 33.8 °F 93% 29.27 in - SE 8.1 mph - N/A   Overcast
6:25 AM 35.6 °F 28.6 °F 35.6 °F 100% 29.27 in - SE 9.2 mph - N/A   Mostly Cloudy
6:55 AM 35.6 °F 28.6 °F 35.6 °F 100% 29.27 in 3.1 mi SE 9.2 mph - N/A   Scattered Clouds
7:00 AM 36 °F - 35 °F 94% 29.30 in 3 mi SE 8.9 mph - -   Mist
7:25 AM 35.6 °F 29.2 °F 35.6 °F 100% 29.30 in 3.1 mi SE 8.1 mph - N/A   Overcast
7:55 AM 35.6 °F 29.9 °F 35.6 °F 100% 29.30 in 3.7 mi SSE 6.9 mph - N/A   Scattered Clouds
8:25 AM 37.4 °F 31.4 °F 35.6 °F 93% 29.30 in 5.6 mi SSE 8.1 mph - N/A   Mostly Cloudy
8:55 AM 37.4 °F 30.3 °F 37.4 °F 100% 29.30 in 6.2 mi SSE 10.4 mph - N/A   Light Drizzle
9:25 AM 37.4 °F 30.3 °F 37.4 °F 100% 29.30 in 6.2 mi SSE 10.4 mph - N/A   Overcast
9:55 AM 37.4 °F 30.8 °F 37.4 °F 100% 29.30 in 5.6 mi SSE 9.2 mph - N/A   Light Drizzle
10:00 AM 38 °F - 36 °F 92% 29.32 in 6 mi South 8.9 mph - - Rain Light Drizzle
10:25 AM 39.2 °F 32.5 °F 37.4 °F 93% 29.30 in 6.2 mi South 10.4 mph - N/A   Overcast
10:55 AM 39.2 °F 32.0 °F 37.4 °F 93% 29.30 in 6.2 mi South 11.5 mph - N/A   Overcast
11:25 AM 41.0 °F 34.3 °F 37.4 °F 87% 29.30 in 6.2 mi South 11.5 mph - N/A   Overcast
11:55 AM 41.0 °F 33.5 °F 37.4 °F 87% 29.33 in 6.2 mi SSW 13.8 mph - N/A   Overcast
12:25 PM 42.8 °F 36.6 °F 37.4 °F 81% 29.33 in 6.2 mi South 11.5 mph - N/A   Mostly Cloudy
12:55 PM 44.6 °F 38.1 °F 37.4 °F 76% 29.33 in 6.2 mi SSW 13.8 mph - N/A   Scattered Clouds
1:00 PM 45 °F - 38 °F 68% 29.34 in 14 mi SW 13.4 mph - -   Partly Cloudy
1:25 PM 46.4 °F 40.7 °F 37.4 °F 71% 29.33 in 6.2 mi SSW 12.7 mph - N/A   Scattered Clouds
1:55 PM 48.2 °F - 37.4 °F 66% 29.33 in 6.2 mi SW 12.7 mph - N/A   Scattered Clouds
2:25 PM 48.2 °F - 35.6 °F 62% 29.33 in 6.2 mi WSW 9.2 mph - N/A   Mostly Cloudy
2:55 PM 48.2 °F - 33.8 °F 58% 29.33 in 6.2 mi SSW 8.1 mph - N/A   Scattered Clouds
3:25 PM 48.2 °F - 33.8 °F 58% 29.33 in 6.2 mi SSW 4.6 mph - N/A   Unknown
3:55 PM 48.2 °F - 32.0 °F 54% 29.33 in 6.2 mi South 4.6 mph - N/A   Partly Cloudy
4:00 PM 48 °F - 31 °F 40% 29.35 in 25 mi SW 4.5 mph - -   Scattered Clouds
4:25 PM 48.2 °F - 30.2 °F 50% 29.33 in 6.2 mi Variable 2.3 mph - N/A   Unknown
4:55 PM 50.0 °F - 32.0 °F 50% 29.33 in 6.2 mi Calm Calm - N/A   Unknown
5:25 PM 48.2 °F - 30.2 °F 50% 29.33 in 6.2 mi Variable 2.3 mph - N/A   Unknown
5:55 PM 46.4 °F 44.3 °F 33.8 °F 62% 29.33 in 6.2 mi ENE 4.6 mph - N/A   Unknown
6:25 PM 44.6 °F 43.1 °F 33.8 °F 66% 29.33 in 6.2 mi ENE 3.5 mph - N/A   Unknown
6:55 PM 42.8 °F 35.4 °F 37.4 °F 81% 29.36 in 6.2 mi East 15.0 mph - N/A   Unknown
7:00 PM 42 °F - 37 °F 77% 29.37 in 6 mi East 11.2 mph - -   Partly Cloudy
7:25 PM 41.0 °F 33.9 °F 37.4 °F 87% 29.36 in 6.2 mi East 12.7 mph - N/A   Mostly Cloudy
7:55 PM 41.0 °F 33.9 °F 35.6 °F 81% 29.36 in 5.6 mi East 12.7 mph - N/A   Unknown
8:25 PM 39.2 °F 31.6 °F 35.6 °F 87% 29.39 in 4.3 mi East 12.7 mph - N/A   Partly Cloudy
8:55 PM 37.4 °F 28.9 °F 33.8 °F 87% 29.39 in 3.7 mi East 13.8 mph - N/A   Mostly Cloudy
9:25 PM 35.6 °F 27.1 °F 33.8 °F 93% 29.39 in 3.1 mi East 12.7 mph - N/A   Overcast
9:55 PM 35.6 °F 27.1 °F 33.8 °F 93% 29.39 in 2.8 mi East 12.7 mph - N/A   Overcast
10:00 PM 35 °F - 33 °F 89% 29.41 in 3 mi East 13.4 mph - -   Mist
10:25 PM 35.6 °F 27.5 °F 33.8 °F 93% 29.39 in - East 11.5 mph - N/A   Overcast
10:55 PM 35.6 °F 27.5 °F 32.0 °F 87% 29.39 in 2.2 mi East 11.5 mph - N/A   Overcast
11:25 PM 33.8 °F 25.3 °F 32.0 °F 93% 29.42 in - East 11.5 mph - N/A   Overcast
11:55 PM 33.8 °F 23.9 °F 32.0 °F 93% 29.42 in - East 15.0 mph - N/A   Overcast